| time (UTC) | temp C | wind direction | speed KPH | gust KPH | rain 1hr cm | rain 24hr cm | rain mn cm | humidity % | barometer mb |
| 20260831145058 | 18 | 250 | 14.5 | 57.9 | 0.13 | 0.18 | 0.18 | 75 | 1011.1 |
| 20260831144606 | 19 | 244 | 24.1 | 57.9 | 0.10 | 0.18 | 0.18 | 70 | 1010.9 |
| 20260831144057 | 21 | 236 | 24.1 | 57.9 | 0.00 | 0.05 | 0.05 | 62 | 1010.9 |
| 20260831143557 | 21 | 274 | 8.0 | 22.5 | 0.00 | 0.05 | 0.05 | 62 | 1010.4 |
| 20260831143105 | 21 | 241 | 11.3 | 24.1 | 0.00 | 0.05 | 0.05 | 61 | 1010.3 |
| 20260831142558 | 21 | 259 | 8.0 | 24.1 | 0.00 | 0.05 | 0.05 | 60 | 1010.4 |
| 20260831142058 | 22 | 238 | 11.3 | 25.7 | 0.00 | 0.05 | 0.05 | 59 | 1010.4 |
| 20260831141614 | 22 | 243 | 14.5 | 25.7 | 0.00 | 0.05 | 0.05 | 59 | 1010.4 |
| 20260831141059 | 22 | 256 | 9.7 | 25.7 | 0.00 | 0.05 | 0.05 | 61 | 1010.2 |
| 20260831140557 | 22 | 240 | 9.7 | 25.7 | 0.00 | 0.05 | 0.05 | 62 | 1010.3 |
| 20260831140105 | 22 | 247 | 9.7 | 27.4 | 0.05 | 0.05 | 0.05 | 63 | 1010.2 |
| 20260831135557 | 22 | 239 | 14.5 | 27.4 | 0.05 | 0.05 | 0.05 | 66 | 1010.2 |
| 20260831135057 | 22 | 273 | 6.4 | 20.9 | 0.05 | 0.05 | 0.05 | 70 | 1010.2 |
| 20260831134606 | 21 | 243 | 12.9 | 20.9 | 0.05 | 0.05 | 0.05 | 69 | 1010.2 |
| 20260831134056 | 21 | 242 | 8.0 | 24.1 | 0.05 | 0.05 | 0.05 | 71 | 1010.3 |
| 20260831133558 | 20 | 261 | 8.0 | 24.1 | 0.05 | 0.05 | 0.05 | 73 | 1010.3 |
| 20260831133106 | 20 | 248 | 11.3 | 24.1 | 0.05 | 0.05 | 0.05 | 74 | 1010.2 |
| 20260831132557 | 20 | 234 | 6.4 | 12.9 | 0.05 | 0.05 | 0.05 | 77 | 1010.2 |
| 20260831132057 | 19 | 255 | 6.4 | 22.5 | 0.05 | 0.05 | 0.05 | 80 | 1010.3 |
| 20260831131606 | 19 | 243 | 8.0 | 22.5 | 0.05 | 0.05 | 0.05 | 76 | 1010.4 |
| 20260831131057 | 20 | 253 | 11.3 | 41.8 | 0.05 | 0.05 | 0.05 | 72 | 1010.4 |
| 20260831130557 | 21 | 263 | 16.1 | 41.8 | 0.05 | 0.05 | 0.05 | 71 | 1010.4 |
| 20260831130104 | 22 | 238 | 24.1 | 40.2 | 0.00 | 0.00 | 0.00 | 62 | 1010.6 |
| 20260831125558 | 22 | 360 | 19.3 | 32.2 | 0.00 | 0.00 | 0.00 | 56 | 1010.3 |
| 20260831125056 | 23 | 360 | 14.5 | 30.6 | 0.00 | 0.00 | 0.00 | 55 | 1010.1 |
| 20260831124559 | 23 | 360 | 11.3 | 30.6 | 0.00 | 0.00 | 0.00 | 53 | 1010.1 |
| 20260831124057 | 24 | 223 | 9.7 | 35.4 | 0.00 | 0.00 | 0.00 | 51 | 1010.1 |
| 20260831123556 | 24 | 360 | 12.9 | 35.4 | 0.00 | 0.00 | 0.00 | 49 | 1010.0 |
| 20260831123110 | 24 | 360 | 16.1 | 33.8 | 0.00 | 0.00 | 0.00 | 50 | 1010.0 |
| 20260831122559 | 24 | 360 | 17.7 | 38.6 | 0.00 | 0.00 | 0.00 | 50 | 1010.0 |
| 20260831122057 | 23 | 222 | 17.7 | 38.6 | 0.00 | 0.00 | 0.00 | 54 | 1010.0 |
| 20260831121609 | 23 | 360 | 17.7 | 33.8 | 0.00 | 0.00 | 0.00 | 54 | 1010.0 |
| 20260831121059 | 23 | 360 | 12.9 | 30.6 | 0.00 | 0.00 | 0.00 | 54 | 1009.9 |
| 20260831120556 | 23 | 219 | 16.1 | 30.6 | 0.00 | 0.00 | 0.00 | 54 | 1010.1 |
| 20260831120124 | 23 | 229 | 14.5 | 35.4 | 0.00 | 0.00 | 0.00 | 55 | 1010.2 |
| 20260831115557 | 23 | 360 | 16.1 | 35.4 | 0.00 | 0.00 | 0.00 | 54 | 1010.1 |
| 20260831115059 | 23 | 249 | 17.7 | 35.4 | 0.00 | 0.00 | 0.00 | 54 | 1010.1 |
| 20260831114600 | 23 | 231 | 16.1 | 35.4 | 0.00 | 0.00 | 0.00 | 54 | 1010.0 |
| 20260831114057 | 24 | 360 | 14.5 | 35.4 | 0.00 | 0.00 | 0.00 | 53 | 1010.1 |
| 20260831113557 | 25 | 200 | 16.1 | 33.8 | 0.00 | 0.00 | 0.00 | 52 | 1010.1 |
| 20260831113107 | 24 | 180 | 17.7 | 33.8 | 0.00 | 0.00 | 0.00 | 51 | 1010.2 |
| 20260831112600 | 24 | 360 | 12.9 | 33.8 | 0.00 | 0.00 | 0.00 | 55 | 1010.3 |
| 20260831112058 | 23 | 360 | 16.1 | 33.8 | 0.00 | 0.00 | 0.00 | 56 | 1010.3 |
| 20260831111614 | 23 | 360 | 16.1 | 32.2 | 0.00 | 0.00 | 0.00 | 56 | 1010.3 |
| 20260831111057 | 23 | 360 | 12.9 | 29.0 | 0.00 | 0.00 | 0.00 | 59 | 1010.3 |
| 20260831110557 | 22 | 360 | 9.7 | 24.1 | 0.00 | 0.00 | 0.00 | 58 | 1010.3 |
| 20260831110104 | 22 | 360 | 11.3 | 27.4 | 0.00 | 0.00 | 0.00 | 58 | 1010.4 |
| 20260831105558 | 22 | 232 | 14.5 | 27.4 | 0.00 | 0.00 | 0.00 | 58 | 1010.5 |
| 20260831105100 | 22 | 360 | 16.1 | 27.4 | 0.00 | 0.00 | 0.00 | 59 | 1010.5 |
| 20260831104604 | 22 | 360 | 11.3 | 25.7 | 0.00 | 0.00 | 0.00 | 59 | 1010.6 |
| 20260831104059 | 22 | 360 | 11.3 | 25.7 | 0.00 | 0.00 | 0.00 | 58 | 1010.6 |
| 20260831103558 | 22 | 360 | 16.1 | 27.4 | 0.00 | 0.00 | 0.00 | 58 | 1010.6 |
| 20260831103108 | 22 | 360 | 16.1 | 30.6 | 0.00 | 0.00 | 0.00 | 60 | 1010.6 |
| 20260831102557 | 22 | 360 | 16.1 | 30.6 | 0.00 | 0.00 | 0.00 | 60 | 1010.6 |
| 20260831102057 | 22 | 240 | 12.9 | 25.7 | 0.00 | 0.00 | 0.00 | 60 | 1010.7 |
| 20260831101606 | 22 | 360 | 11.3 | 25.7 | 0.00 | 0.00 | 0.00 | 60 | 1010.7 |
| 20260831101058 | 22 | 259 | 11.3 | 29.0 | 0.00 | 0.00 | 0.00 | 60 | 1010.7 |
| 20260831100559 | 22 | 252 | 17.7 | 29.0 | 0.00 | 0.00 | 0.00 | 61 | 1010.8 |
| 20260831100114 | 22 | 254 | 14.5 | 32.2 | 0.00 | 0.00 | 0.00 | 60 | 1010.7 |
| 20260831095559 | 23 | 192 | 16.1 | 32.2 | 0.00 | 0.00 | 0.00 | 60 | 1010.9 |
| 20260831095056 | 23 | 245 | 16.1 | 32.2 | 0.00 | 0.00 | 0.00 | 60 | 1010.9 |
| 20260831094606 | 23 | 360 | 17.7 | 30.6 | 0.00 | 0.00 | 0.00 | 62 | 1010.8 |
| 20260831094057 | 22 | 360 | 12.9 | 30.6 | 0.00 | 0.00 | 0.00 | 65 | 1010.9 |
| 20260831093558 | 22 | 360 | 14.5 | 38.6 | 0.00 | 0.00 | 0.00 | 63 | 1010.9 |
| 20260831093109 | 22 | 360 | 16.1 | 38.6 | 0.00 | 0.00 | 0.00 | 65 | 1010.9 |
| 20260831092558 | 22 | 360 | 12.9 | 37.0 | 0.00 | 0.00 | 0.00 | 65 | 1010.9 |
| 20260831092058 | 22 | 266 | 16.1 | 37.0 | 0.00 | 0.00 | 0.00 | 66 | 1011.0 |
| 20260831091605 | 21 | 360 | 6.4 | 30.6 | 0.00 | 0.00 | 0.00 | 69 | 1011.0 |
| 20260831091059 | 21 | 360 | 20.9 | 30.6 | 0.00 | 0.00 | 0.00 | 68 | 1010.9 |
| 20260831090557 | 21 | 360 | 17.7 | 30.6 | 0.00 | 0.00 | 0.00 | 70 | 1011.0 |
| 20260831090109 | 21 | 360 | 12.9 | 30.6 | 0.00 | 0.00 | 0.00 | 71 | 1010.9 |
| 20260831085559 | 20 | 360 | 11.3 | 27.4 | 0.00 | 0.00 | 0.00 | 73 | 1010.9 |
| 20260831085058 | 20 | 360 | 14.5 | 27.4 | 0.00 | 0.00 | 0.00 | 74 | 1010.8 |
| 20260831084609 | 20 | 241 | 12.9 | 27.4 | 0.00 | 0.00 | 0.00 | 73 | 1010.8 |
| 20260831084057 | 20 | 225 | 11.3 | 29.0 | 0.00 | 0.00 | 0.00 | 73 | 1010.8 |
| 20260831083559 | 20 | 246 | 14.5 | 29.0 | 0.00 | 0.00 | 0.00 | 73 | 1010.8 |
| 20260831083108 | 20 | 244 | 11.3 | 27.4 | 0.00 | 0.00 | 0.00 | 73 | 1010.9 |
| 20260831082557 | 20 | 291 | 14.5 | 27.4 | 0.00 | 0.00 | 0.00 | 73 | 1011.0 |
| 20260831082058 | 20 | 241 | 12.9 | 22.5 | 0.00 | 0.00 | 0.00 | 73 | 1011.0 |
| 20260831081605 | 20 | 260 | 8.0 | 19.3 | 0.00 | 0.00 | 0.00 | 74 | 1011.0 |
| 20260831081057 | 20 | 249 | 9.7 | 19.3 | 0.00 | 0.00 | 0.00 | 74 | 1010.9 |
| 20260831080556 | 20 | 245 | 11.3 | 22.5 | 0.00 | 0.00 | 0.00 | 73 | 1010.9 |
| 20260831080137 | 20 | 249 | 11.3 | 22.5 | 0.00 | 0.00 | 0.00 | 74 | 1010.9 |
| 20260831075557 | 20 | 210 | 8.0 | 20.9 | 0.00 | 0.00 | 0.00 | 76 | 1010.9 |
| 20260831075057 | 19 | 240 | 8.0 | 20.9 | 0.00 | 0.00 | 0.00 | 77 | 1010.9 |
| 20260831074601 | 19 | 217 | 6.4 | 22.5 | 0.00 | 0.00 | 0.00 | 76 | 1010.9 |
| 20260831074058 | 19 | 225 | 14.5 | 24.1 | 0.00 | 0.00 | 0.00 | 76 | 1010.9 |
| 20260831073557 | 19 | 360 | 11.3 | 24.1 | 0.00 | 0.00 | 0.00 | 75 | 1010.9 |
| 20260831073117 | 19 | 235 | 14.5 | 24.1 | 0.00 | 0.00 | 0.00 | 74 | 1010.9 |
| 20260831072558 | 19 | 360 | 14.5 | 24.1 | 0.00 | 0.00 | 0.00 | 74 | 1010.8 |
| 20260831072056 | 20 | 213 | 14.5 | 24.1 | 0.00 | 0.00 | 0.00 | 74 | 1010.8 |
| 20260831071616 | 20 | 215 | 12.9 | 27.4 | 0.00 | 0.00 | 0.00 | 73 | 1010.7 |
| 20260831071059 | 20 | 212 | 12.9 | 27.4 | 0.00 | 0.00 | 0.00 | 73 | 1010.8 |
| 20260831070557 | 20 | 234 | 11.3 | 22.5 | 0.00 | 0.00 | 0.00 | 74 | 1010.8 |
| 20260831070112 | 20 | 229 | 9.7 | 24.1 | 0.00 | 0.00 | 0.00 | 75 | 1010.8 |
| 20260831065558 | 19 | 237 | 8.0 | 24.1 | 0.00 | 0.00 | 0.00 | 76 | 1010.8 |
| 20260831065056 | 19 | 245 | 9.7 | 20.9 | 0.00 | 0.00 | 0.00 | 75 | 1010.9 |
| 20260831064608 | 18 | 252 | 9.7 | 20.9 | 0.00 | 0.00 | 0.00 | 76 | 1010.8 |
| 20260831064055 | 18 | 212 | 11.3 | 20.9 | 0.00 | 0.00 | 0.00 | 77 | 1010.7 |
| 20260831063559 | 18 | 240 | 8.0 | 17.7 | 0.00 | 0.00 | 0.00 | 78 | 1010.7 |
| 20260831063111 | 18 | 250 | 6.4 | 16.1 | 0.00 | 0.00 | 0.00 | 79 | 1010.6 |
| 20260831062557 | 17 | 201 | 4.8 | 16.1 | 0.00 | 0.00 | 0.00 | 80 | 1010.5 |
| 20260831062056 | 17 | 211 | 6.4 | 16.1 | 0.00 | 0.00 | 0.00 | 80 | 1010.5 |
| 20260831061608 | 17 | 196 | 6.4 | 16.1 | 0.00 | 0.00 | 0.00 | 81 | 1010.4 |
| 20260831061059 | 17 | 360 | 6.4 | 16.1 | 0.00 | 0.00 | 0.00 | 81 | 1010.5 |
| 20260831060556 | 16 | 217 | 6.4 | 16.1 | 0.00 | 0.00 | 0.00 | 82 | 1010.4 |
| 20260831060110 | 16 | 215 | 8.0 | 16.1 | 0.00 | 0.00 | 0.00 | 82 | 1010.3 |
| 20260831055556 | 16 | 360 | 8.0 | 16.1 | 0.00 | 0.00 | 0.00 | 82 | 1010.3 |
| 20260831055056 | 16 | 360 | 8.0 | 24.1 | 0.00 | 0.00 | 0.00 | 83 | 1010.2 |
| 20260831054627 | 15 | 360 | 8.0 | 24.1 | 0.00 | 0.00 | 0.00 | 83 | 1010.1 |
| 20260831054056 | 15 | 360 | 3.2 | 9.7 | 0.00 | 0.00 | 0.00 | 83 | 1010.1 |
| 20260831053556 | 15 | 360 | 3.2 | 8.0 | 0.00 | 0.00 | 0.00 | 83 | 1010.2 |
| 20260831053109 | 15 | 360 | 3.2 | 8.0 | 0.00 | 0.00 | 0.00 | 83 | 1010.2 |
| 20260831052556 | 15 | 360 | 3.2 | 8.0 | 0.00 | 0.00 | 0.00 | 83 | 1010.3 |
| 20260831052059 | 15 | 360 | 3.2 | 12.9 | 0.00 | 0.00 | 0.00 | 82 | 1010.3 |
| 20260831051608 | 15 | 360 | 4.8 | 12.9 | 0.00 | 0.00 | 0.00 | 82 | 1010.2 |
| 20260831051058 | 15 | 360 | 4.8 | 8.0 | 0.00 | 0.00 | 0.00 | 82 | 1010.3 |
| 20260831050557 | 15 | 360 | 3.2 | 8.0 | 0.00 | 0.00 | 0.00 | 82 | 1010.2 |
| 20260831050110 | 15 | 360 | 3.2 | 6.4 | 0.00 | 0.00 | 0.00 | 81 | 1010.2 |
| 20260831045559 | 15 | 360 | 1.6 | 6.4 | 0.00 | 0.08 | 0.00 | 81 | 1010.1 |
| 20260831045056 | 15 | 360 | 3.2 | 12.9 | 0.00 | 0.08 | 0.00 | 81 | 1010.0 |
| 20260831044607 | 15 | 360 | 3.2 | 12.9 | 0.00 | 0.08 | 0.00 | 81 | 1009.9 |
| 20260831044056 | 15 | 360 | 4.8 | 12.9 | 0.00 | 0.08 | 0.00 | 80 | 1009.9 |
| 20260831043558 | 16 | 360 | 3.2 | 8.0 | 0.00 | 0.08 | 0.00 | 80 | 1010.0 |
| 20260831043106 | 16 | 360 | 3.2 | 8.0 | 0.00 | 0.08 | 0.00 | 80 | 1010.0 |
| 20260831042558 | 16 | 360 | 1.6 | 8.0 | 0.00 | 0.08 | 0.00 | 79 | 1009.9 |
| 20260831042056 | 16 | 360 | 1.6 | 8.0 | 0.00 | 0.08 | 0.00 | 79 | 1009.8 |
| 20260831041611 | 16 | 360 | 3.2 | 14.5 | 0.00 | 0.08 | 0.00 | 79 | 1009.8 |
| 20260831041059 | 16 | 360 | 1.6 | 14.5 | 0.00 | 0.08 | 0.00 | 79 | 1009.9 |
| 20260831040555 | 16 | 360 | 4.8 | 14.5 | 0.00 | 0.08 | 0.00 | 79 | 1010.1 |
| 20260831040111 | 16 | 360 | 4.8 | 9.7 | 0.00 | 0.08 | 0.00 | 78 | 1010.0 |
| 20260831035559 | 16 | 360 | 4.8 | 12.9 | 0.00 | 0.08 | 0.00 | 78 | 1009.9 |
| 20260831035056 | 16 | 360 | 4.8 | 12.9 | 0.00 | 0.08 | 0.00 | 78 | 1009.9 |
| 20260831034604 | 16 | 360 | 4.8 | 12.9 | 0.00 | 0.08 | 0.00 | 78 | 1009.8 |
| 20260831034057 | 16 | 360 | 4.8 | 9.7 | 0.00 | 0.08 | 0.00 | 78 | 1010.0 |
| 20260831033559 | 16 | 360 | 3.2 | 12.9 | 0.00 | 0.08 | 0.00 | 78 | 1010.0 |
| 20260831033059 | 16 | 360 | 4.8 | 12.9 | 0.00 | 0.08 | 0.00 | 78 | 1010.2 |
| 20260831032556 | 16 | 360 | 3.2 | 9.7 | 0.00 | 0.08 | 0.00 | 78 | 1010.2 |
| 20260831032057 | 16 | 360 | 3.2 | 12.9 | 0.00 | 0.08 | 0.00 | 78 | 1010.3 |
| 20260831031607 | 16 | 360 | 4.8 | 12.9 | 0.00 | 0.08 | 0.00 | 78 | 1010.3 |
| 20260831031057 | 16 | 360 | 4.8 | 14.5 | 0.00 | 0.08 | 0.00 | 78 | 1010.2 |
| 20260831030556 | 16 | 360 | 4.8 | 14.5 | 0.00 | 0.08 | 0.00 | 78 | 1010.1 |
| 20260831025557 | 16 | 360 | 6.4 | 12.9 | 0.00 | 0.08 | 0.00 | 79 | 1010.2 |
| 20260831025057 | 16 | 360 | 4.8 | 9.7 | 0.00 | 0.08 | 0.00 | 79 | 1010.2 |
| 20260831024606 | 16 | 360 | 4.8 | 9.7 | 0.00 | 0.08 | 0.00 | 79 | 1010.6 |
| 20260831024057 | 16 | 360 | 3.2 | 12.9 | 0.00 | 0.08 | 0.00 | 79 | 1010.8 |
| 20260831023556 | 16 | 360 | 4.8 | 12.9 | 0.00 | 0.08 | 0.00 | 79 | 1011.0 |
| 20260831023103 | 16 | 360 | 4.8 | 9.7 | 0.00 | 0.08 | 0.00 | 79 | 1011.1 |
| 20260831022600 | 16 | 360 | 3.2 | 12.9 | 0.00 | 0.08 | 0.00 | 79 | 1011.1 |
| 20260831022057 | 16 | 360 | 4.8 | 12.9 | 0.00 | 0.08 | 0.00 | 78 | 1010.9 |
| 20260831021604 | 16 | 360 | 4.8 | 12.9 | 0.00 | 0.08 | 0.00 | 78 | 1011.0 |
| 20260831021101 | 16 | 360 | 4.8 | 14.5 | 0.00 | 0.08 | 0.00 | 78 | 1011.0 |
| 20260831020558 | 16 | 360 | 6.4 | 14.5 | 0.00 | 0.08 | 0.00 | 78 | 1010.9 |
| 20260831020104 | 16 | 360 | 4.8 | 12.9 | 0.00 | 0.08 | 0.00 | 78 | 1010.9 |
| 20260831015601 | 16 | 360 | 3.2 | 12.9 | 0.00 | 0.08 | 0.00 | 78 | 1010.9 |
| 20260831015057 | 16 | 360 | 6.4 | 12.9 | 0.00 | 0.08 | 0.00 | 78 | 1010.9 |
| 20260831014605 | 16 | 360 | 4.8 | 9.7 | 0.00 | 0.08 | 0.00 | 78 | 1011.0 |
| 20260831014057 | 16 | 360 | 3.2 | 9.7 | 0.00 | 0.08 | 0.00 | 78 | 1011.2 |
| 20260831013557 | 16 | 360 | 4.8 | 12.9 | 0.00 | 0.08 | 0.00 | 78 | 1011.3 |
| 20260831013114 | 16 | 360 | 6.4 | 12.9 | 0.00 | 0.08 | 0.00 | 78 | 1011.4 |
| 20260831012558 | 16 | 360 | 6.4 | 12.9 | 0.00 | 0.08 | 0.00 | 78 | 1011.5 |
| 20260831012058 | 16 | 360 | 6.4 | 12.9 | 0.00 | 0.08 | 0.00 | 78 | 1011.3 |
| 20260831011600 | 16 | 360 | 6.4 | 12.9 | 0.00 | 0.08 | 0.00 | 78 | 1011.2 |
| 20260831011057 | 16 | 360 | 4.8 | 12.9 | 0.00 | 0.08 | 0.00 | 78 | 1011.3 |
| 20260831010557 | 16 | 360 | 1.6 | 8.0 | 0.00 | 0.08 | 0.00 | 79 | 1011.3 |
| 20260831010123 | 16 | 360 | 3.2 | 9.7 | 0.00 | 0.08 | 0.00 | 79 | 1011.4 |
| 20260831005557 | 16 | 360 | 4.8 | 12.9 | 0.00 | 0.08 | 0.00 | 79 | 1011.5 |
| 20260831005058 | 15 | 360 | 4.8 | 12.9 | 0.00 | 0.08 | 0.00 | 79 | 1011.6 |
| 20260831004611 | 15 | 360 | 6.4 | 12.9 | 0.00 | 0.08 | 0.00 | 80 | 1011.5 |
| 20260831004101 | 15 | 360 | 4.8 | 9.7 | 0.00 | 0.08 | 0.00 | 80 | 1011.6 |
| 20260831003557 | 15 | 360 | 3.2 | 9.7 | 0.00 | 0.08 | 0.00 | 80 | 1011.5 |
| 20260831003108 | 15 | 360 | 3.2 | 8.0 | 0.00 | 0.08 | 0.00 | 80 | 1011.7 |
| 20260831002557 | 15 | 360 | 3.2 | 8.0 | 0.00 | 0.08 | 0.00 | 80 | 1011.7 |
| 20260831002057 | 15 | 360 | 3.2 | 9.7 | 0.00 | 0.08 | 0.00 | 80 | 1011.7 |
| 20260831001602 | 15 | 360 | 4.8 | 9.7 | 0.00 | 0.08 | 0.00 | 80 | 1011.7 |
| 20260831001057 | 15 | 360 | 3.2 | 9.7 | 0.00 | 0.08 | 0.00 | 80 | 1011.7 |
| 20260831000557 | 15 | 360 | 3.2 | 9.7 | 0.00 | 0.08 | 0.00 | 80 | 1011.8 |
| 20260831000103 | 15 | 360 | 3.2 | 8.0 | 0.00 | 0.08 | 0.00 | 80 | 1011.9 |
| 20260830235559 | 15 | 360 | 1.6 | 8.0 | 0.00 | 0.08 | 0.00 | 80 | 1011.9 |
| 20260830235058 | 15 | 360 | 1.6 | 9.7 | 0.00 | 0.08 | 0.00 | 80 | 1011.9 |
| 20260830234600 | 15 | 360 | 1.6 | 9.7 | 0.00 | 0.08 | 0.00 | 80 | 1011.9 |
| 20260830234057 | 15 | 360 | 1.6 | 9.7 | 0.00 | 0.08 | 0.00 | 80 | 1012.0 |
| 20260830233557 | 15 | 360 | 3.2 | 8.0 | 0.00 | 0.08 | 0.00 | 80 | 1012.0 |
| 20260830233104 | 15 | 360 | 3.2 | 9.7 | 0.00 | 0.08 | 0.00 | 80 | 1012.0 |
| 20260830232558 | 15 | 360 | 4.8 | 9.7 | 0.00 | 0.08 | 0.00 | 80 | 1012.1 |
| 20260830232057 | 16 | 360 | 3.2 | 9.7 | 0.00 | 0.08 | 0.00 | 81 | 1012.0 |
| 20260830231607 | 16 | 360 | 4.8 | 12.9 | 0.00 | 0.08 | 0.00 | 81 | 1012.1 |
| 20260830231058 | 16 | 360 | 4.8 | 12.9 | 0.00 | 0.08 | 0.00 | 81 | 1012.2 |
| 20260830230558 | 15 | 360 | 4.8 | 12.9 | 0.00 | 0.08 | 0.00 | 81 | 1012.3 |
| 20260830230106 | 15 | 360 | 4.8 | 9.7 | 0.00 | 0.08 | 0.00 | 81 | 1012.3 |
| 20260830225558 | 15 | 360 | 4.8 | 12.9 | 0.00 | 0.10 | 0.00 | 81 | 1012.4 |
| 20260830225059 | 15 | 360 | 3.2 | 12.9 | 0.00 | 0.10 | 0.00 | 81 | 1012.3 |
| 20260830224607 | 16 | 360 | 3.2 | 6.4 | 0.00 | 0.10 | 0.00 | 81 | 1012.3 |
| 20260830224058 | 16 | 360 | 0.0 | 4.8 | 0.00 | 0.10 | 0.00 | 80 | 1012.3 |
| 20260830223558 | 16 | 0 | 0.0 | 6.4 | 0.00 | 0.10 | 0.00 | 80 | 1012.3 |
| 20260830223105 | 16 | 360 | 1.6 | 6.4 | 0.00 | 0.10 | 0.00 | 79 | 1012.3 |
| 20260830222558 | 16 | 360 | 1.6 | 4.8 | 0.00 | 0.10 | 0.00 | 79 | 1012.3 |
| 20260830222058 | 16 | 360 | 0.0 | 3.2 | 0.00 | 0.10 | 0.00 | 78 | 1012.3 |
| 20260830221605 | 16 | 0 | 0.0 | 4.8 | 0.00 | 0.10 | 0.00 | 78 | 1012.3 |
| 20260830221058 | 16 | 360 | 1.6 | 4.8 | 0.00 | 0.10 | 0.00 | 78 | 1012.3 |
| 20260830220558 | 16 | 360 | 1.6 | 4.8 | 0.00 | 0.10 | 0.00 | 78 | 1012.3 |
| 20260830220103 | 17 | 360 | 1.6 | 4.8 | 0.00 | 0.10 | 0.00 | 77 | 1012.4 |
| 20260830215601 | 17 | 0 | 0.0 | 3.2 | 0.00 | 0.10 | 0.10 | 77 | 1012.3 |
| 20260830215057 | 17 | 360 | 1.6 | 3.2 | 0.00 | 0.10 | 0.10 | 77 | 1012.4 |
| 20260830214605 | 17 | 360 | 0.0 | 0.0 | 0.00 | 0.10 | 0.10 | 76 | 1012.4 |
| 20260830214057 | 17 | 0 | 0.0 | 0.0 | 0.00 | 0.10 | 0.10 | 76 | 1012.4 |
| 20260830213558 | 17 | 0 | 0.0 | 3.2 | 0.00 | 0.10 | 0.10 | 76 | 1012.4 |
| 20260830213101 | 17 | 0 | 0.0 | 3.2 | 0.00 | 0.10 | 0.10 | 75 | 1012.4 |
| 20260830212557 | 18 | 0 | 0.0 | 3.2 | 0.00 | 0.10 | 0.10 | 74 | 1012.4 |
| 20260830212058 | 18 | 0 | 0.0 | 4.8 | 0.00 | 0.10 | 0.10 | 73 | 1012.4 |
| 20260830211600 | 18 | 258 | 0.0 | 4.8 | 0.00 | 0.10 | 0.10 | 73 | 1012.4 |
| 20260830211058 | 18 | 0 | 1.6 | 4.8 | 0.00 | 0.10 | 0.10 | 72 | 1012.4 |
| 20260830210558 | 18 | 0 | 1.6 | 4.8 | 0.00 | 0.10 | 0.10 | 72 | 1012.4 |
| 20260830210115 | 18 | 258 | 0.0 | 4.8 | 0.00 | 0.10 | 0.10 | 71 | 1012.4 |
| 20260830205559 | 18 | 258 | 0.0 | 4.8 | 0.00 | 0.10 | 0.10 | 71 | 1012.5 |
| 20260830205057 | 18 | 360 | 1.6 | 8.0 | 0.00 | 0.10 | 0.10 | 71 | 1012.5 |
| 20260830204605 | 18 | 360 | 1.6 | 8.0 | 0.00 | 0.10 | 0.10 | 71 | 1012.5 |
| 20260830204057 | 18 | 360 | 1.6 | 6.4 | 0.00 | 0.10 | 0.10 | 71 | 1012.4 |
| 20260830203557 | 18 | 0 | 1.6 | 8.0 | 0.00 | 0.10 | 0.10 | 71 | 1012.5 |
| 20260830203103 | 18 | 360 | 3.2 | 9.7 | 0.00 | 0.10 | 0.10 | 71 | 1012.4 |
| 20260830202557 | 18 | 360 | 3.2 | 9.7 | 0.00 | 0.10 | 0.10 | 71 | 1012.5 |
| 20260830202058 | 18 | 360 | 3.2 | 6.4 | 0.00 | 0.10 | 0.10 | 71 | 1012.5 |
| 20260830201612 | 18 | 360 | 1.6 | 8.0 | 0.00 | 0.10 | 0.10 | 71 | 1012.5 |
| 20260830201101 | 18 | 360 | 3.2 | 17.7 | 0.00 | 0.10 | 0.10 | 71 | 1012.5 |
| 20260830200557 | 19 | 360 | 3.2 | 17.7 | 0.00 | 0.10 | 0.10 | 71 | 1012.5 |
| 20260830195557 | 19 | 360 | 4.8 | 9.7 | 0.00 | 0.10 | 0.10 | 71 | 1012.6 |
| 20260830195057 | 19 | 360 | 4.8 | 9.7 | 0.00 | 0.10 | 0.10 | 71 | 1012.7 |
| 20260830194613 | 19 | 360 | 4.8 | 9.7 | 0.00 | 0.10 | 0.10 | 71 | 1012.7 |
| 20260830194057 | 19 | 360 | 4.8 | 9.7 | 0.00 | 0.10 | 0.10 | 70 | 1012.7 |
| 20260830193601 | 19 | 360 | 4.8 | 12.9 | 0.00 | 0.10 | 0.10 | 70 | 1012.7 |
| 20260830193101 | 19 | 360 | 4.8 | 12.9 | 0.00 | 0.10 | 0.10 | 70 | 1012.7 |
| 20260830192559 | 19 | 360 | 4.8 | 14.5 | 0.00 | 0.10 | 0.10 | 70 | 1012.8 |
| 20260830192058 | 19 | 360 | 6.4 | 14.5 | 0.00 | 0.10 | 0.10 | 70 | 1012.7 |
| 20260830191609 | 19 | 360 | 6.4 | 14.5 | 0.00 | 0.10 | 0.10 | 70 | 1012.7 |
| 20260830191057 | 19 | 360 | 6.4 | 14.5 | 0.00 | 0.10 | 0.10 | 69 | 1012.7 |
| 20260830190558 | 19 | 360 | 8.0 | 14.5 | 0.00 | 0.10 | 0.10 | 69 | 1012.6 |
| 20260830190110 | 19 | 360 | 6.4 | 14.5 | 0.00 | 0.10 | 0.10 | 69 | 1012.7 |
| 20260830185558 | 19 | 360 | 6.4 | 12.9 | 0.00 | 0.10 | 0.10 | 69 | 1012.6 |
| 20260830185221 | 19 | 360 | 6.4 | 14.5 | 0.00 | 0.10 | 0.10 | 69 | 1012.5 |
| 20260830184606 | 19 | 360 | 4.8 | 14.5 | 0.00 | 0.10 | 0.10 | 69 | 1012.5 |
| 20260830184056 | 19 | 360 | 6.4 | 14.5 | 0.00 | 0.10 | 0.10 | 69 | 1012.5 |
| 20260830183558 | 19 | 360 | 6.4 | 14.5 | 0.00 | 0.10 | 0.10 | 68 | 1012.5 |
| 20260830183101 | 20 | 360 | 6.4 | 14.5 | 0.00 | 0.10 | 0.10 | 68 | 1012.4 |
| 20260830182558 | 20 | 360 | 4.8 | 19.3 | 0.00 | 0.10 | 0.10 | 68 | 1012.4 |
| 20260830182058 | 20 | 360 | 9.7 | 19.3 | 0.00 | 0.10 | 0.10 | 68 | 1012.4 |
| 20260830181603 | 20 | 360 | 9.7 | 19.3 | 0.00 | 0.10 | 0.10 | 67 | 1012.4 |
| 20260830181057 | 20 | 360 | 8.0 | 19.3 | 0.00 | 0.10 | 0.10 | 67 | 1012.3 |
| 20260830180558 | 20 | 360 | 6.4 | 17.7 | 0.00 | 0.10 | 0.10 | 67 | 1012.3 |
| 20260830180105 | 20 | 360 | 9.7 | 17.7 | 0.00 | 0.10 | 0.10 | 66 | 1012.3 |
| 20260830175557 | 20 | 360 | 11.3 | 22.5 | 0.00 | 0.10 | 0.10 | 66 | 1012.3 |
| 20260830175057 | 20 | 360 | 11.3 | 22.5 | 0.00 | 0.10 | 0.10 | 66 | 1012.2 |
| 20260830174637 | 20 | 360 | 11.3 | 22.5 | 0.00 | 0.10 | 0.10 | 66 | 1012.1 |
| 20260830174058 | 20 | 360 | 9.7 | 22.5 | 0.00 | 0.10 | 0.10 | 66 | 1012.1 |
| 20260830173558 | 20 | 360 | 8.0 | 17.7 | 0.00 | 0.10 | 0.10 | 67 | 1012.1 |
| 20260830173103 | 20 | 215 | 4.8 | 17.7 | 0.00 | 0.10 | 0.10 | 67 | 1012.1 |
| 20260830172557 | 20 | 360 | 8.0 | 17.7 | 0.00 | 0.10 | 0.10 | 67 | 1012.1 |
| 20260830172058 | 20 | 360 | 11.3 | 17.7 | 0.00 | 0.10 | 0.10 | 66 | 1012.1 |
| 20260830171614 | 20 | 360 | 6.4 | 17.7 | 0.00 | 0.10 | 0.10 | 66 | 1012.1 |
| 20260830171056 | 21 | 360 | 9.7 | 22.5 | 0.00 | 0.10 | 0.10 | 65 | 1012.0 |
| 20260830170557 | 21 | 360 | 9.7 | 22.5 | 0.00 | 0.10 | 0.10 | 65 | 1012.0 |
| 20260830165557 | 21 | 360 | 12.9 | 22.5 | 0.00 | 0.10 | 0.10 | 65 | 1011.9 |
| 20260830165057 | 21 | 242 | 12.9 | 22.5 | 0.00 | 0.10 | 0.10 | 65 | 1011.9 |
| 20260830164605 | 21 | 266 | 12.9 | 29.0 | 0.00 | 0.10 | 0.10 | 65 | 1011.9 |
| 20260830164057 | 21 | 266 | 14.5 | 29.0 | 0.00 | 0.10 | 0.10 | 65 | 1011.9 |
| 20260830163558 | 21 | 259 | 11.3 | 29.0 | 0.00 | 0.10 | 0.10 | 65 | 1012.0 |
| 20260830163103 | 21 | 247 | 14.5 | 29.0 | 0.00 | 0.10 | 0.10 | 64 | 1012.0 |
| 20260830162557 | 21 | 239 | 14.5 | 29.0 | 0.00 | 0.10 | 0.10 | 64 | 1012.0 |
| 20260830162058 | 21 | 239 | 16.1 | 27.4 | 0.00 | 0.10 | 0.10 | 64 | 1011.9 |
| 20260830161615 | 21 | 249 | 14.5 | 27.4 | 0.00 | 0.10 | 0.10 | 65 | 1012.0 |
| 20260830161057 | 21 | 236 | 11.3 | 22.5 | 0.00 | 0.10 | 0.10 | 65 | 1011.9 |
| 20260830160603 | 21 | 257 | 12.9 | 22.5 | 0.00 | 0.10 | 0.10 | 66 | 1012.0 |
| 20260830155558 | 21 | 232 | 8.0 | 17.7 | 0.00 | 0.10 | 0.10 | 66 | 1011.9 |
| 20260830155058 | 21 | 242 | 9.7 | 19.3 | 0.00 | 0.10 | 0.10 | 66 | 1011.9 |
| 20260830154606 | 21 | 262 | 11.3 | 19.3 | 0.00 | 0.10 | 0.10 | 66 | 1012.0 |
| 20260830154100 | 21 | 281 | 11.3 | 22.5 | 0.00 | 0.10 | 0.10 | 66 | 1012.0 |
| 20260830153558 | 21 | 244 | 12.9 | 24.1 | 0.00 | 0.10 | 0.10 | 65 | 1012.0 |
| 20260830153106 | 21 | 250 | 12.9 | 29.0 | 0.00 | 0.10 | 0.10 | 65 | 1012.0 |
| 20260830152557 | 21 | 273 | 12.9 | 29.0 | 0.00 | 0.10 | 0.10 | 65 | 1011.9 |
| 20260830152057 | 21 | 289 | 17.7 | 29.0 | 0.00 | 0.10 | 0.10 | 65 | 1012.1 |
| 20260830151601 | 21 | 239 | 12.9 | 30.6 | 0.00 | 0.10 | 0.10 | 67 | 1012.1 |
| 20260830151100 | 21 | 276 | 12.9 | 30.6 | 0.00 | 0.10 | 0.10 | 66 | 1012.0 |
| 20260830150559 | 21 | 280 | 9.7 | 24.1 | 0.00 | 0.10 | 0.10 | 67 | 1012.0 |
| 20260830145559 | 21 | 261 | 11.3 | 20.9 | 0.00 | 0.10 | 0.10 | 66 | 1011.9 |